INMARSAT 5-F3

Last updated on May 20, 2019, 3:09 a.m. UTC

1 40882U 15042A   19139.19727080  .00000040  00000-0  00000+0 0  9994
2 40882   0.0161 320.8098 0000988 147.4427  18.9412  1.00270778 13625
UTC
Height (km)
Latitude
Longitude
Inclination
Orbital Period
UTC large
Height (km)
Speed (km/s)
/
Latitude / Longitude
Inclination (degrees)
Orbital Period (minutes)
Azimuth
Elevation
Range (km)
Doppler Factor
iOS Compass Heading
iOS Angle

Next 30 passes for location: Hong Kong

Rise time Rise Azimuth (degrees) Set time Set Azimuth (degrees) Duration Max altitude (degrees)

No matching passes for this satellites